Nashville, TN

2:56 AM CST on January 24, 2018 (GMT -0600)
Nashville International

Weather History for KBNA - December, 2012

Change the Weather History Date:

Tuesday, December 11, 2012

  Actual Average Record
Temperature  
Mean Temperature 35 °F 41 °F  
Max Temperature 42 °F 50 °F 76 °F (2007)
Min Temperature 28 °F 32 °F 3 °F (1962)
Degree Days  
Heating Degree Days 30    
Month to date heating degree days 100  
Since 1 July heating degree days 854  
Cooling Degree Days 0    
Month to date cooling degree days 2  
Year to date cooling degree days 1977  
Moisture  
Dew Point 24 °F    
Average Humidity 62    
Maximum Humidity 78    
Minimum Humidity 46    
Precipitation  
Precipitation 0.00 in 0.15 in 2.00 in (1899)
Month to date precipitation 1.74 1.70  
Year to date precipitation 42.85 44.71  
Snow  
Snow 0.00 in - 3.90 in (1917)
Month to date snowfall 0.0  
Since 1 July snowfall 0.0  
Snow Depth 0.00 in    
Sea Level Pressure  
Sea Level Pressure 30.18 in    
Wind  
Wind Speed 5 mph (North)    
Max Wind Speed 13 mph    
Max Gust Speed 21 mph    
Visibility 10 miles    
Events      
T = Trace of Precipitation, MM = Missing Value Source: NWS Daily Summary

Daily Weather History Graph

Daily Weather History Graph

Search for Another Location

Airport or City:

Trip Planner

Search our weather history database for the weather conditions in past years. The results will help you decide how hot, cold, wet, or windy it might be!

Date:

Astronomy

Dec. 11, 2012 Rise Set
Actual Time 6:47 AM CST 4:32 PM CST
Civil Twilight 6:19 AM CST 5:01 PM CST
Nautical Twilight 5:47 AM CST 5:33 PM CST
Astronomical Twilight 5:15 AM CST 6:04 PM CST
Moon 4:43 AM CST (12/11) 3:09 PM CST (12/11)
Length of Visible Light 10h 41m
Length of Day
9h 44m
Waning Crescent, 4% of the Moon is Illuminated
Dec 11
Waning Crescent
Dec 13
New
Dec 19
First Quarter
Dec 28
Full
Jan 4
Last Quarter

Hourly Weather History & Observations

Time (CST) Temp. Windchill Dew Point Humidity Pressure Visibility Wind Dir Wind Speed Gust Speed Precip Events Conditions
12:53 AM 33.1 °F 25.5 °F 25.0 °F 72% 30.05 in 10.0 mi NNW 9.2 mph - N/A   Overcast
1:53 AM 33.1 °F 26.1 °F 24.1 °F 70% 30.07 in 10.0 mi North 8.1 mph - N/A   Overcast
2:53 AM 33.1 °F 26.9 °F 25.0 °F 72% 30.08 in 10.0 mi NNW 6.9 mph - N/A   Overcast
3:53 AM 33.1 °F 26.9 °F 24.1 °F 70% 30.08 in 10.0 mi NNW 6.9 mph - N/A   Overcast
4:53 AM 33.1 °F - 24.1 °F 70% 30.09 in 10.0 mi North - - N/A   Overcast
5:53 AM 32.0 °F 25.6 °F 23.0 °F 69% 30.11 in 10.0 mi NNW 6.9 mph - N/A   Overcast
6:53 AM 32.0 °F 24.2 °F 23.0 °F 69% 30.15 in 10.0 mi NNE 9.2 mph - N/A   Overcast
7:53 AM 33.1 °F 28.7 °F 23.0 °F 66% 30.17 in 10.0 mi North 4.6 mph - N/A   Overcast
8:53 AM 34.0 °F 29.8 °F 23.0 °F 64% 30.19 in 10.0 mi North 4.6 mph - N/A   Overcast
9:53 AM 35.1 °F 31.0 °F 24.1 °F 64% 30.20 in 10.0 mi North 4.6 mph - N/A   Mostly Cloudy
10:53 AM 37.9 °F 33.5 °F 24.1 °F 57% 30.20 in 10.0 mi North 5.8 mph - N/A   Mostly Cloudy
11:53 AM 37.9 °F 35.5 °F 23.0 °F 55% 30.18 in 10.0 mi West 3.5 mph - N/A   Scattered Clouds
12:53 PM 39.9 °F 36.7 °F 23.0 °F 51% 30.17 in 10.0 mi North 4.6 mph - N/A   Scattered Clouds
1:53 PM 39.9 °F 37.8 °F 23.0 °F 51% 30.17 in 10.0 mi Variable 3.5 mph - N/A   Scattered Clouds
2:53 PM 41.0 °F 37.1 °F 23.0 °F 49% 30.17 in 10.0 mi NE 5.8 mph - N/A   Partly Cloudy
3:53 PM 39.9 °F 35.1 °F 23.0 °F 51% 30.18 in 10.0 mi NNE 6.9 mph - N/A   Partly Cloudy
4:53 PM 36.0 °F 30.3 °F 23.0 °F 59% 30.19 in 10.0 mi NNE 6.9 mph - N/A   Partly Cloudy
5:53 PM 34.0 °F 27.2 °F 24.1 °F 67% 30.20 in 10.0 mi NNE 8.1 mph - N/A   Clear
6:53 PM 33.1 °F 27.7 °F 24.1 °F 70% 30.21 in 10.0 mi NE 5.8 mph - N/A   Clear
7:53 PM 34.0 °F 31.0 °F 25.0 °F 70% 30.24 in 10.0 mi North 3.5 mph - N/A   Clear
8:53 PM 33.1 °F 28.7 °F 24.1 °F 70% 30.25 in 10.0 mi North 4.6 mph - N/A   Clear
9:53 PM 30.0 °F - 24.1 °F 79% 30.26 in 10.0 mi Calm Calm - N/A   Clear
10:53 PM 30.0 °F - 25.0 °F 82% 30.27 in 10.0 mi Calm Calm - N/A   Clear
11:53 PM 28.0 °F - 24.1 °F 85% 30.29 in 10.0 mi Calm Calm - N/A   Clear